Back to catalog

STARLINK-37149

AliveCommunicationsSSO
NORAD 68309·PAYLOAD·🇺🇸 United States

Launched Mar 20, 2026 from Vandenberg Space Force Base

Loading…

Next Passes (next 24 hours)

TLE

FreshSource: CelesTrak SupGP

Epoch: Sep 15, 2026, 03:06 UTC

1 68309C 26057R   26258.12965278  .00015495  00000+0  48079-3 0  2581
2 68309  97.2858  23.6374 0000943  91.9042 231.5321 15.33445854    13

Track STARLINK-37149 in real time with AllMySat

Download on the App Store